GW1021 Weather Reports


Display with metric or nautical units.
time (UTC)temp
F
wind
direction
speed
MPH
gust
MPH
rain 1hr
in
rain 24hr
in
rain mn
in
humidity
%
barometer
mb
20260906072622 66 356 1.0 2.0 0.00 0.00 0.00 97 1014.0
20260906072118 66 52 3.0 3.0 0.00 0.00 0.00 98 1014.1
20260906071615 66 52 0.0 1.0 0.00 0.00 0.00 98 1013.9
20260906071109 66 36 2.0 3.0 0.00 0.00 0.00 98 1014.1
20260906070606 66 75 3.0 6.0 0.00 0.00 0.00 99 1014.2
20260906070101 66 79 2.0 2.0 0.00 0.00 0.00 99 1014.2
20260906065600 66 41 3.0 5.0 0.00 0.00 0.00 99 1013.9
20260906065056 66 356 1.0 1.0 0.00 0.00 0.00 99 1014.2
20260906064552 66 307 1.0 1.0 0.00 0.00 0.00 99 1014.3
20260906064046 67 353 1.0 1.0 0.00 0.00 0.00 99 1014.2
20260906063541 67 81 1.0 1.0 0.00 0.00 0.00 99 1014.2
20260906063038 67 342 1.0 1.0 0.00 0.00 0.00 99 1014.3
20260906062533 68 62 1.0 2.0 0.00 0.00 0.00 99 1014.2
20260906062027 68 12 1.0 1.0 0.00 0.00 0.00 99 1014.3
20260906061523 68 71 2.0 3.0 0.00 0.00 0.00 99 1014.2
20260906061022 69 6 1.0 1.0 0.00 0.00 0.00 99 1014.2
20260906060519 69 313 2.0 2.0 0.00 0.00 0.00 99 1014.2
20260906060016 69 55 1.0 2.0 0.00 0.00 0.00 99 1014.3
20260906055511 69 13 0.0 0.0 0.00 0.00 0.00 99 1014.3
20260906055006 69 52 1.0 2.0 0.00 0.00 0.00 99 1014.1
20260906054501 70 84 1.0 1.0 0.00 0.00 0.00 99 1014.1
20260906053956 70 80 1.0 1.0 0.00 0.00 0.00 99 1014.0
20260906053453 70 14 1.0 1.0 0.00 0.00 0.00 99 1014.0
20260906052948 70 57 1.0 2.0 0.00 0.00 0.00 99 1013.9
20260906052444 70 81 2.0 2.0 0.00 0.00 0.00 99 1013.8
20260906051941 70 99 0.0 0.0 0.00 0.00 0.00 99 1013.8
20260906051436 71 66 2.0 2.0 0.00 0.00 0.00 99 1013.9
20260906050932 71 337 1.0 1.0 0.00 0.00 0.00 99 1013.8
20260906050431 71 59 1.0 2.0 0.00 0.00 0.00 99 1013.8
20260906045930 70 36 1.0 2.0 0.00 0.00 0.00 99 1013.8
20260906045429 71 59 1.0 1.0 0.00 0.00 0.00 99 1013.9
20260906044926 71 327 1.0 1.0 0.00 0.00 0.00 99 1013.8
20260906044420 71 321 1.0 1.0 0.00 0.00 0.00 99 1013.6
20260906043915 71 29 3.0 5.0 0.00 0.00 0.00 99 1013.7
20260906043412 71 21 1.0 1.0 0.00 0.00 0.00 99 1013.4
20260906042907 71 10 3.0 3.0 0.00 0.00 0.00 99 1013.5
20260906042406 72 357 2.0 3.0 0.00 0.00 0.00 99 1013.8
20260906041901 72 10 2.0 2.0 0.00 0.00 0.00 99 1013.4
20260906041356 72 2 3.0 5.0 0.00 0.00 0.00 99 1013.5
20260906040851 72 3 1.0 3.0 0.00 0.00 0.00 99 1013.4
20260906040346 72 338 1.0 1.0 0.00 0.00 0.00 99 1013.5
20260906035842 72 59 3.0 3.0 0.00 0.03 0.03 99 1013.4
20260906035337 72 56 0.0 2.0 0.00 0.03 0.03 99 1013.6
20260906034832 72 352 2.0 2.0 0.00 0.03 0.03 99 1013.5
20260906034327 72 63 1.0 1.0 0.00 0.03 0.03 99 1013.4
20260906033823 72 348 1.0 1.0 0.00 0.03 0.03 99 1013.4
20260906033322 73 54 3.0 5.0 0.00 0.03 0.03 99 1013.4
20260906032818 73 64 1.0 2.0 0.00 0.03 0.03 99 1013.3
20260906032314 73 129 1.0 1.0 0.00 0.03 0.03 99 1013.4
20260906031809 73 343 1.0 1.0 0.00 0.03 0.03 99 1013.5
20260906031305 73 9 1.0 2.0 0.00 0.03 0.03 99 1013.8
20260906030804 73 64 0.0 1.0 0.00 0.03 0.03 99 1013.6
20260906030300 73 32 2.0 2.0 0.00 0.03 0.03 99 1013.6
20260906025759 73 10 0.0 1.0 0.00 0.03 0.03 99 1013.5
20260906025253 73 309 0.0 1.0 0.00 0.03 0.03 99 1013.6
20260906024752 74 299 0.0 0.0 0.00 0.03 0.03 99 1013.6
20260906024252 74 48 0.0 0.0 0.00 0.03 0.03 99 1013.5
20260906023747 74 57 1.0 1.0 0.00 0.03 0.03 99 1013.6
20260906023242 74 59 1.0 2.0 0.00 0.03 0.03 99 1013.7
20260906022738 74 82 2.0 3.0 0.00 0.03 0.03 99 1013.9
20260906022233 75 60 2.0 2.0 0.00 0.03 0.03 99 1013.7
20260906021729 75 97 1.0 1.0 0.00 0.03 0.03 99 1013.7
20260906021228 75 81 2.0 2.0 0.00 0.03 0.03 99 1013.8
20260906020723 75 121 2.0 3.0 0.00 0.03 0.03 99 1013.7
20260906020218 75 76 4.0 5.0 0.00 0.03 0.03 98 1013.7
20260906015712 75 91 6.0 7.0 0.00 0.03 0.03 98 1013.5
20260906015211 75 48 3.0 3.0 0.00 0.03 0.03 98 1013.5
20260906014711 75 68 3.0 5.0 0.00 0.03 0.03 98 1013.7
20260906014207 76 97 5.0 6.0 0.00 0.03 0.03 98 1013.4
20260906013702 76 77 1.0 2.0 0.00 0.03 0.03 98 1013.2
20260906013157 76 82 4.0 6.0 0.00 0.03 0.03 99 1013.2
20260906012657 76 69 1.0 1.0 0.00 0.03 0.03 99 1013.2
20260906012151 75 91 3.0 3.0 0.00 0.03 0.03 99 1013.3
20260906011648 75 70 2.0 2.0 0.00 0.03 0.03 99 1013.2
20260906011142 75 67 1.0 2.0 0.00 0.03 0.03 98 1013.2
20260906010637 74 110 4.0 5.0 0.00 0.03 0.03 98 1013.1
20260906010134 73 93 1.0 1.0 0.00 0.03 0.03 97 1012.9
20260906005633 74 84 0.0 0.0 0.00 0.03 0.03 96 1013.0
20260906005127 73 85 1.0 1.0 0.00 0.03 0.03 97 1012.9
20260906004626 73 130 0.0 0.0 0.00 0.03 0.03 97 1012.7
20260906004121 73 275 0.0 0.0 0.00 0.03 0.03 96 1012.7
20260906003616 73 275 0.0 0.0 0.00 0.03 0.03 95 1012.6
20260906003112 73 275 0.0 0.0 0.00 0.03 0.03 94 1012.6
20260906002607 74 275 0.0 0.0 0.00 0.03 0.03 94 1012.8
20260906002101 74 275 0.0 0.0 0.00 0.03 0.03 93 1012.7
20260906001556 74 292 0.0 0.0 0.00 0.03 0.03 92 1012.5
20260906001051 74 292 0.0 0.0 0.00 0.03 0.03 91 1012.7
20260906000547 74 311 0.0 0.0 0.00 0.03 0.03 91 1012.6
20260906000042 75 59 0.0 0.0 0.00 0.03 0.03 90 1012.1
20260905235536 75 81 0.0 1.0 0.00 0.03 0.03 90 1012.4
20260905235031 75 280 0.0 1.0 0.00 0.03 0.03 89 1012.3
20260905234526 75 270 0.0 0.0 0.00 0.03 0.03 89 1012.6
20260905234027 76 16 1.0 1.0 0.00 0.03 0.03 89 1012.6
20260905233521 76 4 1.0 2.0 0.00 0.03 0.03 89 1012.5
20260905233021 77 328 1.0 1.0 0.05 0.03 0.03 89 1012.7
20260905232517 77 323 4.0 5.0 0.05 0.03 0.03 88 1012.7
20260905232012 77 339 7.0 8.0 0.00 0.02 0.02 89 1012.9
20260905231508 77 307 5.0 7.0 0.00 0.02 0.02 89 1013.2
20260905231004 78 358 5.0 6.0 0.07 0.02 0.02 89 1012.9
20260905230503 79 327 5.0 7.0 0.12 0.02 0.02 89 1012.6
20260905230001 80 325 3.0 3.0 0.05 0.01 0.01 87 1012.6
20260905225456 80 345 3.0 5.0 0.00 0.00 0.00 87 1012.6
20260905224951 80 339 5.0 6.0 0.00 0.00 0.00 86 1012.6
20260905224446 81 313 1.0 1.0 0.00 0.00 0.00 85 1012.1
20260905223945 81 304 1.0 2.0 0.00 0.00 0.00 84 1012.0
20260905223443 82 348 4.0 6.0 0.00 0.00 0.00 84 1012.6
20260905222943 83 6 2.0 2.0 0.00 0.00 0.00 82 1012.4
20260905222438 84 357 2.0 2.0 0.00 0.00 0.00 83 1012.1
20260905221934 85 231 0.0 0.0 0.00 0.00 0.00 80 1011.6
20260905221430 85 240 0.0 0.0 0.00 0.00 0.00 79 1011.7
20260905220926 86 269 0.0 0.0 0.00 0.00 0.00 77 1011.7
20260905220422 86 269 0.0 0.0 0.00 0.00 0.00 76 1011.6
20260905215920 86 264 1.0 1.0 0.00 0.00 0.00 76 1011.6
20260905215416 86 287 0.0 1.0 0.00 0.00 0.00 75 1011.5
20260905214913 87 284 2.0 2.0 0.00 0.00 0.00 75 1011.4
20260905214408 88 279 2.0 2.0 0.00 0.00 0.00 73 1011.5
20260905213908 89 292 2.0 2.0 0.00 0.00 0.00 70 1011.5
20260905213404 90 276 3.0 3.0 0.00 0.00 0.00 71 1011.5
20260905212859 91 275 4.0 5.0 0.00 0.00 0.00 69 1011.5
20260905212354 91 252 3.0 3.0 0.00 0.00 0.00 68 1011.5
20260905211853 90 266 3.0 3.0 0.00 0.00 0.00 70 1011.5
20260905211349 90 240 3.0 5.0 0.00 0.00 0.00 69 1011.7
20260905210845 90 284 3.0 3.0 0.00 0.00 0.00 69 1011.6
20260905210345 89 351 5.0 6.0 0.00 0.00 0.00 69 1011.8
20260905205844 89 312 4.0 5.0 0.00 0.00 0.00 70 1011.8
20260905205339 90 277 4.0 5.0 0.00 0.00 0.00 69 1012.3
20260905204838 90 293 2.0 2.0 0.00 0.00 0.00 71 1012.1
20260905204335 90 1 4.0 5.0 0.00 0.00 0.00 68 1012.3
20260905203833 90 305 3.0 5.0 0.00 0.00 0.00 68 1012.1
20260905203329 90 297 5.0 6.0 0.00 0.00 0.00 70 1012.5
20260905202825 90 352 5.0 7.0 0.00 0.00 0.00 69 1012.4
20260905202319 89 316 3.0 5.0 0.00 0.00 0.00 71 1012.6
20260905201815 89 254 4.0 5.0 0.00 0.00 0.00 70 1012.6
20260905201311 89 263 2.0 2.0 0.00 0.00 0.00 70 1012.7
20260905200805 90 271 3.0 3.0 0.00 0.00 0.00 70 1012.6
20260905200300 90 285 2.0 2.0 0.00 0.00 0.00 70 1012.7
20260905195753 90 286 2.0 2.0 0.00 0.00 0.00 70 1012.6
20260905195248 90 240 3.0 3.0 0.00 0.00 0.00 71 1012.8
20260905194744 90 304 4.0 5.0 0.00 0.00 0.00 70 1012.7
20260905194243 89 276 5.0 6.0 0.00 0.00 0.00 71 1012.9
20260905193743 90 281 4.0 5.0 0.00 0.00 0.00 70 1012.9
20260905193238 89 313 3.0 3.0 0.00 0.00 0.00 68 1013.0
20260905192733 89 275 3.0 3.0 0.00 0.00 0.00 71 1013.1
20260905192229 89 342 3.0 5.0 0.00 0.00 0.00 67 1013.2
20260905191729 89 305 5.0 6.0 0.00 0.00 0.00 69 1013.3
20260905191227 89 274 2.0 2.0 0.00 0.00 0.00 71 1013.3
20260905190726 88 293 3.0 3.0 0.00 0.00 0.00 70 1013.3
20260905190225 88 274 5.0 8.0 0.00 0.00 0.00 68 1013.6
20260905185724 89 261 3.0 3.0 0.00 0.00 0.00 69 1013.5
20260905185219 89 257 7.0 8.0 0.00 0.00 0.00 66 1013.6
20260905184713 88 209 3.0 3.0 0.00 0.00 0.00 68 1013.4
20260905184212 88 268 3.0 3.0 0.00 0.00 0.00 68 1013.7
20260905183706 88 290 3.0 5.0 0.00 0.00 0.00 70 1013.7
20260905183201 88 231 4.0 6.0 0.00 0.00 0.00 69 1013.7
20260905182701 87 316 2.0 3.0 0.00 0.00 0.00 72 1013.9
20260905182201 87 288 4.0 5.0 0.00 0.00 0.00 73 1014.0
20260905181656 87 245 4.0 5.0 0.00 0.00 0.00 69 1013.9
20260905181155 86 218 4.0 6.0 0.00 0.00 0.00 70 1014.0
20260905180649 86 233 6.0 8.0 0.00 0.00 0.00 71 1014.1
20260905180145 86 224 4.0 5.0 0.00 0.00 0.00 70 1013.9
20260905175644 86 233 3.0 5.0 0.00 0.00 0.00 71 1014.0
20260905175140 85 295 4.0 6.0 0.00 0.00 0.00 72 1014.0
20260905174635 85 301 5.0 7.0 0.00 0.00 0.00 73 1014.0
20260905174131 85 274 2.0 2.0 0.00 0.00 0.00 73 1014.1
20260905173626 84 287 8.0 8.0 0.00 0.00 0.00 71 1014.0
20260905173122 83 283 4.0 5.0 0.00 0.00 0.00 77 1013.9
20260905172621 82 273 4.0 5.0 0.00 0.00 0.00 76 1014.1
20260905172116 82 268 4.0 6.0 0.00 0.00 0.00 77 1013.9
20260905171612 83 299 3.0 3.0 0.00 0.00 0.00 76 1014.1
20260905171108 83 272 3.0 3.0 0.00 0.00 0.00 75 1013.7
20260905170604 84 241 4.0 5.0 0.00 0.00 0.00 73 1013.7
20260905170059 85 237 8.0 10.0 0.00 0.00 0.00 71 1013.6
20260905165554 85 237 8.0 9.0 0.00 0.00 0.00 72 1013.7
20260905165049 85 245 7.0 8.0 0.00 0.00 0.00 73 1013.8
20260905164544 85 246 5.0 6.0 0.00 0.00 0.00 74 1014.0
20260905164038 84 258 4.0 5.0 0.00 0.00 0.00 74 1014.3
20260905163534 84 219 5.0 7.0 0.00 0.00 0.00 72 1014.4
20260905163030 84 282 2.0 3.0 0.00 0.00 0.00 72 1014.5
20260905162527 83 230 5.0 6.0 0.00 0.00 0.00 74 1014.4
20260905162021 82 266 7.0 8.0 0.00 0.00 0.00 74 1014.6
20260905161521 82 254 5.0 7.0 0.00 0.00 0.00 76 1014.6
20260905161018 82 201 6.0 7.0 0.00 0.00 0.00 75 1014.7
20260905160512 82 244 5.0 6.0 0.00 0.00 0.00 78 1014.6
20260905160011 82 237 3.0 3.0 0.00 0.00 0.00 75 1014.9
20260905155506 81 204 5.0 6.0 0.00 0.00 0.00 77 1014.7
20260905155004 81 224 5.0 7.0 0.00 0.00 0.00 79 1014.7
20260905154500 81 257 4.0 6.0 0.00 0.00 0.00 78 1014.6
20260905153955 81 194 3.0 3.0 0.00 0.00 0.00 76 1014.6
20260905153452 80 260 3.0 5.0 0.00 0.00 0.00 81 1014.4
20260905152951 80 223 4.0 6.0 0.00 0.00 0.00 79 1014.5
20260905152451 79 189 3.0 5.0 0.00 0.00 0.00 79 1014.4
20260905151946 79 231 5.0 6.0 0.00 0.00 0.00 79 1014.2
20260905151441 79 241 4.0 5.0 0.00 0.00 0.00 78 1014.4
20260905150936 79 239 4.0 5.0 0.00 0.00 0.00 78 1014.2
20260905150436 79 213 5.0 7.0 0.00 0.00 0.00 78 1014.0
20260905145932 79 227 5.0 6.0 0.00 0.00 0.00 78 1014.1
20260905145427 79 235 8.0 10.0 0.00 0.00 0.00 79 1014.0
20260905144927 78 188 5.0 6.0 0.00 0.00 0.00 79 1014.0
20260905144423 78 160 6.0 7.0 0.00 0.00 0.00 80 1014.1
20260905143921 78 226 6.0 8.0 0.00 0.00 0.00 81 1014.2
20260905143421 77 149 2.0 2.0 0.00 0.00 0.00 82 1014.2
20260905142915 77 229 7.0 8.0 0.00 0.00 0.00 81 1014.3
20260905142414 77 170 2.0 2.0 0.00 0.00 0.00 82 1014.2
20260905141910 77 233 6.0 7.0 0.00 0.00 0.00 82 1014.2
20260905141404 77 240 3.0 5.0 0.00 0.00 0.00 83 1014.5
20260905140901 76 211 4.0 6.0 0.00 0.00 0.00 83 1014.5
20260905140355 76 212 1.0 1.0 0.00 0.00 0.00 85 1014.6
20260905135854 76 207 3.0 3.0 0.00 0.00 0.00 84 1014.4
20260905135350 76 203 1.0 1.0 0.00 0.00 0.00 85 1014.4
20260905134846 76 121 4.0 8.0 0.00 0.00 0.00 84 1014.6
20260905134344 76 215 3.0 5.0 0.00 0.00 0.00 84 1014.5
20260905133838 75 153 3.0 3.0 0.00 0.00 0.00 86 1014.8
20260905133334 75 185 3.0 3.0 0.00 0.00 0.00 88 1014.6
20260905132833 74 132 4.0 5.0 0.00 0.00 0.00 87 1014.9
20260905132329 74 192 3.0 5.0 0.00 0.00 0.00 88 1015.0
20260905131823 74 207 2.0 2.0 0.00 0.00 0.00 89 1015.1
20260905131319 73 253 1.0 1.0 0.00 0.00 0.00 91 1015.0
20260905130814 73 145 2.0 2.0 0.00 0.00 0.00 91 1015.2
20260905130312 72 179 2.0 2.0 0.00 0.00 0.00 93 1015.3
20260905125808 71 96 2.0 2.0 0.00 0.00 0.00 93 1015.4
20260905125305 71 91 5.0 6.0 0.00 0.00 0.00 93 1015.4
20260905124759 71 119 3.0 3.0 0.00 0.00 0.00 94 1015.3
20260905124255 70 137 1.0 2.0 0.00 0.00 0.00 94 1015.4
20260905123749 70 102 3.0 3.0 0.00 0.00 0.00 95 1015.2
20260905123246 69 123 2.0 2.0 0.00 0.00 0.00 95 1014.9
20260905122740 69 118 3.0 3.0 0.00 0.00 0.00 96 1014.6
20260905122234 69 150 1.0 1.0 0.00 0.00 0.00 97 1014.6
20260905121730 69 229 0.0 0.0 0.00 0.00 0.00 97 1014.5
20260905121226 69 130 2.0 2.0 0.00 0.00 0.00 97 1014.5
20260905120724 69 186 3.0 5.0 0.00 0.00 0.00 96 1014.6
20260905120219 69 183 1.0 1.0 0.00 0.00 0.00 96 1014.8
20260905115714 69 169 1.0 2.0 0.00 0.00 0.00 95 1014.9
20260905115209 69 100 3.0 3.0 0.00 0.00 0.00 95 1014.8
20260905114709 69 105 4.0 5.0 0.00 0.00 0.00 94 1014.7
20260905114206 69 78 4.0 5.0 0.00 0.00 0.00 94 1015.1
20260905113701 69 72 4.0 5.0 0.00 0.00 0.00 93 1015.3
20260905113157 69 53 6.0 8.0 0.00 0.00 0.00 93 1015.0
20260905112656 69 105 4.0 5.0 0.00 0.00 0.00 93 1015.0
20260905112152 69 89 6.0 9.0 0.00 0.00 0.00 92 1015.0
20260905111652 69 80 5.0 7.0 0.00 0.00 0.00 92 1015.1
20260905111151 69 3 2.0 2.0 0.00 0.00 0.00 93 1015.3
20260905110650 69 5 2.0 2.0 0.00 0.00 0.00 93 1015.2
20260905110146 69 68 5.0 7.0 0.00 0.00 0.00 93 1015.2
20260905105641 69 85 4.0 5.0 0.00 0.00 0.00 94 1014.8
20260905105140 69 52 4.0 6.0 0.00 0.00 0.00 94 1014.9
20260905104635 69 74 3.0 5.0 0.00 0.00 0.00 94 1015.1
20260905104130 69 56 3.0 3.0 0.00 0.00 0.00 94 1015.3
20260905103626 69 65 3.0 3.0 0.00 0.00 0.00 94 1015.4
20260905103122 69 107 5.0 7.0 0.00 0.00 0.00 94 1015.2
20260905102617 69 66 2.0 5.0 0.00 0.00 0.00 94 1015.1
20260905102114 69 83 3.0 5.0 0.00 0.00 0.00 94 1015.2
20260905101612 69 54 3.0 3.0 0.00 0.00 0.00 94 1015.2
20260905101110 69 61 6.0 8.0 0.00 0.00 0.00 94 1015.0
20260905100607 69 31 5.0 9.0 0.00 0.00 0.00 93 1015.1
20260905100101 70 92 8.0 13.0 0.00 0.00 0.00 93 1015.2
20260905095555 70 11 4.0 6.0 0.00 0.00 0.00 92 1015.3
20260905095051 70 49 6.0 8.0 0.00 0.00 0.00 91 1015.4
20260905094545 71 3 4.0 5.0 0.00 0.00 0.00 92 1015.7
20260905094044 71 34 7.0 9.0 0.00 0.00 0.00 92 1015.3
20260905093539 70 25 6.0 10.0 0.00 0.00 0.00 94 1015.5
20260905093035 71 11 11.0 15.0 0.00 0.00 0.00 99 1014.9
20260905092530 73 329 5.0 6.0 0.00 0.00 0.00 99 1014.8
20260905092026 73 205 0.0 0.0 0.00 0.00 0.00 99 1013.4
20260905091525 73 205 0.0 0.0 0.00 0.00 0.00 99 1013.5
20260905091020 73 205 0.0 0.0 0.00 0.00 0.00 99 1013.5
20260905090519 73 205 0.0 0.0 0.00 0.00 0.00 99 1013.5
20260905090014 73 205 0.0 0.0 0.00 0.00 0.00 99 1013.4
20260905085513 73 205 0.0 0.0 0.00 0.00 0.00 99 1013.6
20260905085009 73 205 0.0 0.0 0.00 0.00 0.00 99 1013.4
20260905084503 73 205 0.0 0.0 0.00 0.00 0.00 99 1013.5
20260905083957 73 205 0.0 0.0 0.00 0.00 0.00 99 1013.3
20260905083453 73 205 0.0 0.0 0.00 0.00 0.00 99 1013.3
20260905082948 73 206 0.0 0.0 0.00 0.00 0.00 99 1013.3
20260905082444 73 207 0.0 0.0 0.00 0.00 0.00 99 1013.0
20260905081939 73 207 0.0 0.0 0.00 0.00 0.00 99 1013.4
20260905081434 73 207 0.0 0.0 0.00 0.00 0.00 99 1013.1
20260905080933 73 208 0.0 0.0 0.00 0.00 0.00 99 1013.1
20260905080428 73 207 0.0 0.0 0.00 0.00 0.00 99 1013.1
20260905075927 73 233 0.0 0.0 0.00 0.00 0.00 99 1013.3
20260905075421 74 233 0.0 0.0 0.00 0.00 0.00 98 1013.2
20260905074920 74 233 0.0 0.0 0.00 0.00 0.00 98 1013.0
20260905074416 74 233 0.0 0.0 0.00 0.00 0.00 98 1012.9
20260905073912 74 233 0.0 0.0 0.00 0.00 0.00 98 1012.6
20260905073407 74 233 0.0 0.0 0.00 0.00 0.00 98 1012.4